Weather History for Gillette, WY

Change the Weather History Date:

Monday, November 12, 2012

  Actual Average Record
Temperature  
Mean Temperature 24 °F 34 °F  
Max Temperature 36 °F 47 °F 75 °F (1999)
Min Temperature 11 °F 22 °F -14 °F (1986)
Degree Days  
Heating Degree Days 41 30  
Month to date heating degree days 326 336  
Since 1 July heating degree days 1123 1245  
Cooling Degree Days 0 0  
Month to date cooling degree days 0 0  
Year to date cooling degree days 795 502  
Moisture  
Dew Point 15 °F    
Average Humidity 65    
Maximum Humidity 73    
Minimum Humidity 56    
Precipitation  
Precipitation 0.00 in 0.03 in 0.44 in (1959)
Month to date precipitation 0.15 0.27  
Year to date precipitation 8.62 13.21  
Sea Level Pressure  
Sea Level Pressure 30.26 in    
Wind  
Wind Speed 13 mph (SW)    
Max Wind Speed 20 mph    
Max Gust Speed 25 mph    
Visibility 10 miles    
Events      
T = Trace of Precipitation, MM = Missing Value Source: NWS Daily Summary

Daily Weather History Graph

Daily Weather History Graph

Search for Another Location

Airport:

Trip Planner

Search our weather history database for the weather conditions in past years. The results will help you decide how hot, cold, wet, or windy it might be!

Date:

Astronomy

Nov. 12, 2012 Rise Set
Actual Time 6:54 AM MST 4:37 PM MST
Civil Twilight 6:23 AM MST 5:08 PM MST
Nautical Twilight 5:48 AM MST 5:43 PM MST
Astronomical Twilight 5:14 AM MST 6:17 PM MST
Moon 5:21 AM MST (11/12) 3:45 PM MST (11/12)
Length of Visible Light 10h 45m
Length of Day
9h 42m
Waning Crescent, 2% of the Moon is Illuminated
Nov 12
Waning Crescent
Nov 13
New
Nov 20
First Quarter
Nov 28
Full
Dec 6
Last Quarter

Hourly Weather History & Observations

Time (MST) Temp. Windchill Dew Point Humidity Pressure Visibility Wind Dir Wind Speed Gust Speed Precip Events Conditions
12:53 AM 14.0 °F 0.5 °F 5.0 °F 67% 30.27 in 10.0 mi SW 11.5 mph - N/A   Clear
1:53 AM 12.9 °F -1.6 °F 5.0 °F 71% 30.27 in 10.0 mi SW 12.7 mph - N/A   Clear
2:53 AM 14.0 °F -0.8 °F 5.0 °F 67% 30.28 in 10.0 mi SW 13.8 mph - N/A   Clear
3:53 AM 14.0 °F -0.8 °F 5.0 °F 67% 30.29 in 10.0 mi SW 13.8 mph - N/A   Clear
4:53 AM 14.0 °F 3.9 °F 5.0 °F 67% 30.12 in 10.0 mi SW 6.9 mph - N/A   Clear
5:53 AM 16.0 °F 2.9 °F 6.1 °F 65% 30.31 in 10.0 mi SW 11.5 mph - N/A   Clear
6:53 AM 18.0 °F 3.6 °F 8.1 °F 65% 30.32 in 10.0 mi SW 15.0 mph - N/A   Clear
7:53 AM 19.9 °F 6.2 °F 10.0 °F 65% 30.32 in 10.0 mi SSW 15.0 mph - N/A   Clear
8:53 AM 25.0 °F 12.6 °F 12.9 °F 60% 30.32 in 10.0 mi SSW 15.0 mph - N/A   Clear
9:53 AM 28.9 °F 17.7 °F 17.1 °F 61% 30.31 in 10.0 mi SSW 15.0 mph - N/A   Clear
10:53 AM 30.9 °F 19.4 °F 19.0 °F 61% 30.30 in 10.0 mi SW 17.3 mph - N/A   Clear
11:53 AM 33.1 °F 23.9 °F 19.9 °F 59% 30.28 in 10.0 mi SW 12.7 mph - N/A   Clear
12:53 PM 34.0 °F 24.6 °F 21.9 °F 61% 30.25 in 10.0 mi SW 13.8 mph - N/A   Clear
1:53 PM 36.0 °F 27.1 °F 21.9 °F 57% 30.25 in 10.0 mi SW 13.8 mph - N/A   Clear
2:53 PM 36.0 °F 27.5 °F 23.0 °F 59% 30.24 in 10.0 mi SW 12.7 mph - N/A   Clear
3:53 PM 34.0 °F 26.0 °F 21.9 °F 61% 30.25 in 10.0 mi SW 10.4 mph - N/A   Clear
4:53 PM 32.0 °F 22.5 °F 21.0 °F 64% 30.26 in 10.0 mi SW 12.7 mph - N/A   Clear
5:53 PM 32.0 °F 23.0 °F 21.0 °F 64% 30.26 in 10.0 mi SW 11.5 mph - N/A   Clear
6:53 PM 30.9 °F 23.5 °F 21.0 °F 67% 30.24 in 10.0 mi South 8.1 mph - N/A   Clear
7:53 PM 32.0 °F 22.1 °F 21.0 °F 64% 30.24 in 10.0 mi SW 13.8 mph - N/A   Clear
8:53 PM 32.0 °F 20.5 °F 19.9 °F 61% 30.21 in 10.0 mi SW 18.4 mph - N/A   Clear
9:53 PM 30.9 °F 19.1 °F 19.9 °F 64% 30.19 in 10.0 mi SW 18.4 mph - N/A   Clear
10:53 PM 30.9 °F 20.7 °F 19.0 °F 61% 30.18 in 10.0 mi SW 13.8 mph - N/A   Clear
11:53 PM 30.9 °F 22.2 °F 19.0 °F 61% 30.18 in 10.0 mi South 10.4 mph - N/A   Clear